Meteo pe oră la Abapo

Astăzi, 26 Iulie, Luni

Timp Temperatura Precipitaţii Vânt Presiune Umiditate
00:00 +22°C° 0 mm 1 m/s 707 mmHg 60%
01:00 +21°C° 0 mm 1 m/s 707 mmHg 61%
02:00 +21°C° 0 mm 1 m/s 707 mmHg 62%
03:00 +21°C° 0 mm 1 m/s 707 mmHg 62%
04:00 +20°C° 0 mm 1 m/s 707 mmHg 62%
05:00 +20°C° 0 mm 1 m/s 707 mmHg 62%
06:00 +21°C° 0 mm 1 m/s 708 mmHg 58%
07:00 +23°C° 0 mm 1 m/s 708 mmHg 54%
08:00 +24°C° 0 mm 1 m/s 709 mmHg 50%
09:00 +27°C° 0 mm 1 m/s 709 mmHg 42%
10:00 +31°C° 0 mm 1 m/s 709 mmHg 34%
11:00 +34°C° 0 mm 1 m/s 710 mmHg 27%
12:00 +36°C° 0 mm 2 m/s 709 mmHg 25%
13:00 +37°C° 0 mm 2 m/s 708 mmHg 23%
14:00 +39°C° 0 mm 2 m/s 707 mmHg 21%
15:00 +38°C° 0 mm 3 m/s 707 mmHg 22%
16:00 +37°C° 0 mm 3 m/s 706 mmHg 24%
17:00 +37°C° 0 mm 4 m/s 705 mmHg 25%
18:00 +34°C° 0 mm 3 m/s 706 mmHg 33%
19:00 +30°C° 0 mm 3 m/s 707 mmHg 40%
20:00 +27°C° 0 mm 2 m/s 708 mmHg 48%
21:00 +26°C° 0 mm 3 m/s 709 mmHg 51%
22:00 +24°C° 0 mm 3 m/s 711 mmHg 54%
23:00 +22°C° 0 mm 4 m/s 712 mmHg 57%

Mâine, 27 Iulie, Marţi

Timp Temperatura Precipitaţii Vânt Presiune Umiditate
00:00 +22°C° 0 mm 3 m/s 712 mmHg 57%
01:00 +22°C° 0 mm 3 m/s 713 mmHg 56%
02:00 +21°C° 0 mm 2 m/s 713 mmHg 56%
03:00 +21°C° 0 mm 2 m/s 714 mmHg 55%
04:00 +20°C° 0 mm 3 m/s 714 mmHg 54%
05:00 +19°C° 0 mm 3 m/s 715 mmHg 54%
06:00 +19°C° 0 mm 3 m/s 716 mmHg 52%
07:00 +18°C° 0 mm 3 m/s 717 mmHg 51%
08:00 +18°C° 0 mm 3 m/s 718 mmHg 49%
09:00 +17°C° 0.1 mm 3 m/s 718 mmHg 48%
10:00 +17°C° 0.1 mm 3 m/s 719 mmHg 46%
11:00 +17°C° 0.1 mm 3 m/s 719 mmHg 45%
12:00 +17°C° 0 mm 3 m/s 718 mmHg 41%
13:00 +17°C° 0 mm 3 m/s 718 mmHg 38%
14:00 +18°C° 0 mm 3 m/s 717 mmHg 34%
15:00 +18°C° 0 mm 3 m/s 716 mmHg 32%
16:00 +18°C° 0 mm 3 m/s 716 mmHg 30%
17:00 +18°C° 0 mm 3 m/s 716 mmHg 28%
18:00 +18°C° 0 mm 2 m/s 716 mmHg 29%
19:00 +17°C° 0 mm 2 m/s 717 mmHg 30%
20:00 +17°C° 0 mm 2 m/s 717 mmHg 30%
21:00 +17°C° 0 mm 2 m/s 717 mmHg 31%
22:00 +16°C° 0 mm 2 m/s 718 mmHg 31%
23:00 +16°C° 0 mm 2 m/s 718 mmHg 31%

Poimâine, 28 Iulie, Miercuri

Timp Temperatura Precipitaţii Vânt Presiune Umiditate
00:00 +16°C° 0 mm 1 m/s 718 mmHg 32%
01:00 +16°C° 0 mm 1 m/s 718 mmHg 32%
02:00 +16°C° 0 mm 1 m/s 717 mmHg 32%
03:00 +16°C° 0 mm 1 m/s 717 mmHg 33%
04:00 +16°C° 0 mm 2 m/s 717 mmHg 33%
05:00 +16°C° 0 mm 2 m/s 717 mmHg 33%
06:00 +16°C° 0 mm 2 m/s 718 mmHg 33%
07:00 +16°C° 0 mm 3 m/s 719 mmHg 32%
08:00 +15°C° 0 mm 4 m/s 720 mmHg 31%
09:00 +17°C° 0 mm 4 m/s 720 mmHg 29%
10:00 +17°C° 0 mm 4 m/s 721 mmHg 27%
11:00 +18°C° 0 mm 4 m/s 721 mmHg 25%
12:00 +18°C° 0 mm 4 m/s 720 mmHg 25%
13:00 +18°C° 0 mm 4 m/s 720 mmHg 25%
14:00 +19°C° 0 mm 3 m/s 719 mmHg 25%
15:00 +18°C° 0 mm 3 m/s 719 mmHg 25%
16:00 +18°C° 0 mm 3 m/s 719 mmHg 25%
17:00 +18°C° 0 mm 2 m/s 718 mmHg 25%
18:00 +17°C° 0 mm 2 m/s 719 mmHg 26%
19:00 +17°C° 0 mm 2 m/s 720 mmHg 27%
20:00 +16°C° 0 mm 1 m/s 720 mmHg 27%
21:00 +16°C° 0 mm 1 m/s 720 mmHg 28%
22:00 +16°C° 0 mm 2 m/s 721 mmHg 28%
23:00 +16°C° 0 mm 2 m/s 721 mmHg 28%

29 Iulie, Joi

Timp Temperatura Precipitaţii Vânt Presiune Umiditate
00:00 +15°C° 0 mm 2 m/s 720 mmHg 29%
01:00 +15°C° 0 mm 1 m/s 720 mmHg 30%
02:00 +14°C° 0 mm 1 m/s 720 mmHg 30%
03:00 +14°C° 0 mm 1 m/s 719 mmHg 31%
04:00 +14°C° 0 mm 1 m/s 719 mmHg 32%
05:00 +13°C° 0 mm 1 m/s 719 mmHg 33%
06:00 +13°C° 0 mm 1 m/s 719 mmHg 32%
07:00 +14°C° 0 mm 1 m/s 720 mmHg 31%
08:00 +14°C° 0 mm 1 m/s 720 mmHg 30%
09:00 +16°C° 0 mm 1 m/s 720 mmHg 26%
10:00 +19°C° 0 mm 1 m/s 720 mmHg 22%
11:00 +21°C° 0 mm 2 m/s 720 mmHg 18%
12:00 +21°C° 0 mm 2 m/s 719 mmHg 17%
13:00 +23°C° 0 mm 2 m/s 718 mmHg 15%
14:00 +24°C° 0 mm 2 m/s 717 mmHg 14%
15:00 +23°C° 0 mm 2 m/s 716 mmHg 14%
16:00 +23°C° 0 mm 2 m/s 716 mmHg 14%
17:00 +21°C° 0 mm 2 m/s 715 mmHg 14%
18:00 +19°C° 0 mm 2 m/s 716 mmHg 17%
19:00 +16°C° 0 mm 1 m/s 716 mmHg 19%
20:00 +14°C° 0 mm 1 m/s 716 mmHg 22%
21:00 +13°C° 0 mm 1 m/s 716 mmHg 23%
22:00 +12°C° 0 mm 1 m/s 716 mmHg 25%
23:00 +12°C° 0 mm 1 m/s 717 mmHg 27%

30 Iulie, Vineri

Timp Temperatura Precipitaţii Vânt Presiune Umiditate
00:00 +11°C° 0 mm 1 m/s 717 mmHg 28%
01:00 +11°C° 0 mm 1 m/s 716 mmHg 29%
02:00 +10°C° 0 mm 1 m/s 716 mmHg 30%
03:00 +10°C° 0 mm 1 m/s 716 mmHg 31%
04:00 +9°C° 0 mm 1 m/s 716 mmHg 32%
05:00 +9°C° 0 mm 1 m/s 716 mmHg 33%
06:00 +10°C° 0 mm 1 m/s 716 mmHg 31%
07:00 +11°C° 0 mm 1 m/s 717 mmHg 29%
08:00 +12°C° 0 mm 0 m/s 717 mmHg 26%
09:00 +15°C° 0 mm 1 m/s 717 mmHg 23%
10:00 +19°C° 0 mm 1 m/s 717 mmHg 19%
11:00 +21°C° 0 mm 2 m/s 717 mmHg 15%
12:00 +23°C° 0 mm 2 m/s 716 mmHg 15%
13:00 +24°C° 0 mm 2 m/s 715 mmHg 15%
14:00 +25°C° 0 mm 2 m/s 714 mmHg 15%
15:00 +25°C° 0 mm 2 m/s 714 mmHg 15%
16:00 +24°C° 0 mm 2 m/s 713 mmHg 16%
17:00 +24°C° 0 mm 2 m/s 713 mmHg 17%
18:00 +20°C° 0 mm 2 m/s 713 mmHg 21%
19:00 +19°C° 0 mm 1 m/s 713 mmHg 24%
20:00 +15°C° 0 mm 1 m/s 713 mmHg 28%
21:00 +14°C° 0 mm 1 m/s 713 mmHg 30%
22:00 +14°C° 0 mm 1 m/s 714 mmHg 31%
23:00 +13°C° 0 mm 1 m/s 714 mmHg 32%

31 Iulie, Sâmbătă

Timp Temperatura Precipitaţii Vânt Presiune Umiditate
00:00 +13°C° 0 mm 1 m/s 713 mmHg 33%
01:00 +13°C° 0 mm 1 m/s 713 mmHg 33%
02:00 +13°C° 0 mm 1 m/s 713 mmHg 33%
03:00 +13°C° 0 mm 1 m/s 713 mmHg 36%
04:00 +12°C° 0 mm 1 m/s 712 mmHg 38%
05:00 +11°C° 0 mm 1 m/s 712 mmHg 41%
06:00 +12°C° 0 mm 1 m/s 713 mmHg 38%
07:00 +13°C° 0 mm 0 m/s 713 mmHg 36%
08:00 +14°C° 0 mm 0 m/s 713 mmHg 33%
09:00 +19°C° 0 mm 1 m/s 714 mmHg 29%
10:00 +22°C° 0 mm 1 m/s 714 mmHg 25%
11:00 +25°C° 0 mm 2 m/s 714 mmHg 21%
12:00 +27°C° 0 mm 2 m/s 713 mmHg 21%
13:00 +29°C° 0 mm 3 m/s 712 mmHg 21%
14:00 +31°C° 0 mm 3 m/s 711 mmHg 20%
15:00 +31°C° 0 mm 3 m/s 711 mmHg 22%
16:00 +30°C° 0 mm 4 m/s 711 mmHg 23%
17:00 +30°C° 0 mm 4 m/s 711 mmHg 24%
18:00 +27°C° 0 mm 4 m/s 713 mmHg 27%
19:00 +23°C° 0 mm 4 m/s 715 mmHg 31%
20:00 +21°C° 0 mm 4 m/s 716 mmHg 34%
21:00 +20°C° 0 mm 4 m/s 717 mmHg 40%
22:00 +19°C° 0 mm 4 m/s 718 mmHg 47%
23:00 +17°C° 0 mm 4 m/s 719 mmHg 53%
Arată mai mult

Formular de consimțământ

Meteoprog și furnizorii noștri de servicii pot stoca și accesa date personale, precum cookies, identificatori de dispozitiv sau alte tehnologii similare pe dispozitivul dumneavoastră și procesa astfel de date pentru a personaliza conținutul și reclamele, dar și pentru a oferi caracteristici de social media și pentru a analiza traficul.

  • Stocarea și/sau accesarea informațiilor pe dispozitivul dumneavoastră

    Cookies, identificatori de dispozitiv sau alte informații pot fi stocate sau accesate pe dispozitiv în scopurile indicate mai sus.

  • Reclame și conținut personalizat, evaluarea reclamelor și a conținutului, informații despre audiențe și dezvoltarea produselor

    Reclamele și conținutul pot fi personalizate pe baza unui profil. Pot fi adăugate date suplimentare pentru a personaliza mai bine reclamele și conținutul. Performanța reclamelor și conținutului poate fi măsurată. Pot fi obținute informații despre utilizatorii care au văzut reclamele și conținutul. Aceste date pot fi utilizate pentru a dezvolta sau îmbunătăți experiența utilizatorilor, sistemele și software-ul.

Dând clic pe ‘Sunt de acord’, permiteți utilizarea cookie-urilor menționate, a identificatorilor de dispozitiv, balizelor web sau altor tehnologii similare. Setările pot fi modificate din browser-ul dispozitivului dumneavoastră.

În anumite scopuri, interesele legitime pot prima asupra consimțământului. Puteți citi mai multe informații în acest sens în Politica privind Confidențialitatea Datelor și Cookie.